Location: Unspecified
(35.6961°N, 0.0000°E)
Time: 03:33:23
(UTC+00:00)

S-56A Canister/Altair - Pass Details

Date: 31 May 2019
Orbit: 633 x 2499 km, 38.9° (Epoch: 14 June)

Event Time Altitude Azimuth Distance (km) Brightness Sun altitude
Rises 04:06:39 0° 288° (WNW) 3,747 10.7 -7.7°
Reaches altitude 10° 04:08:56 10° 285° (WNW) 2,986 10.2 -7.3°
Maximum altitude 04:16:19 64° 206° (SSW) 1,617 8.9 -6.0°
Drops below altitude 10° 04:27:37 10° 128° (SE) 4,448 11.7 -4.1°
Sets 04:31:47 0° 126° (SE) 5,690 12.3 -3.3°
